Regional Weather Roundup
Issued by NWS

Home | Current Version | Previous Version | Text Only | Print | Product List | Glossary On
Versions: 1 2 3 4 5 6 7 8 9 10 11 12 13 14 15 16 17 18 19 20 21 22 23 24 25 26 27 28 29 30 31 32 33 34 35 36 37 38 39 40 41 42 43 44 45 46 47 48 49 50
000
ASUS43 KMPX 251501
RWRMN
WEATHER ROUNDUP FOR MINNESOTA
NATIONAL WEATHER SERVICE TWIN CITIES/CHANHASSEN MN
1000 AM CDT SAT APR 25 2015


NOTE: "FAIR" INDICATES FEW OR NO CLOUDS BELOW 12,000 FEET WITH NO
SIGNIFICANT WEATHER AND/OR OBSTRUCTIONS TO VISIBILITY. N/A MEANS
CURRENT SKY AND/OR WEATHER CONDITIONS ARE NOT AVAILABLE.

MNZ060>063-068>070-251600-
   Twin Cities Metro

CITY           SKY/WX    TMP DP  RH WIND       PRES   REMARKS
TWIN CITIES    PTSUNNY   48  37  65 E16       29.86R
ST PAUL        MOSUNNY   49  36  61 E14       29.88R
CRYSTAL        PTSUNNY   49  36  61 E14       29.86R
BLAINE         PTSUNNY   50  36  57 E12G18    29.87R
LAKEVILLE      MOSUNNY   43  39  87 E14G20    29.84S
EDEN PRAIRIE   CLOUDY    46  37  71 E12       29.84R
SOUTH ST PAUL  MOSUNNY   49  36  61 E12       29.86R
LAKE ELMO      CLOUDY    46  34  61 E9        29.88R
$$
MNZ001>005-007-008-013>017-022>024-027-028-251600-
   Northwest Minnesota

CITY           SKY/WX    TMP DP  RH WIND       PRES   REMARKS
BEMIDJI        SUNNY     45  28  52 E10       29.90S
HALLOCK        SUNNY     50  30  46 E7        29.92S
ROSEAU         PTSUNNY   46  27  46 E8        29.95R
WARROAD        PTSUNNY   43  30  61 NE7       29.96S
THIEF RVR FALL PTSUNNY   46  30  53 E12       29.91R
CROOKSTON      CLOUDY    48  34  57 E10       29.90S
FOSSTON        CLOUDY    46  32  57 E7        29.90R
DETROIT LAKES  PTSUNNY   45  36  70 SE14      29.87R
MOORHEAD       CLOUDY    45  36  70 SE8       29.88R
PARK RAPIDS    CLOUDY    45  31  58 E13       29.88R
MAHNOMEN       FAIR      46  34  62 SE9       29.86S
$$
MNZ006-009>011-018-025>026-251600-
   North Central Minnesota

CITY           SKY/WX    TMP DP  RH WIND       PRES   REMARKS
BAUDETTE       SUNNY     46  23  40 E9        29.96S
FLAG ISLAND    SUNNY     45  23  42 E7        29.97S
INTL FALLS     PTSUNNY   44  19  36 E10       29.98R
WASKISH        SUNNY     48  27  43 E8        29.94S
BIG FORK       PTSUNNY   43  21  42 E8        29.95R
LONGVILLE      CLOUDY    41  28  60 E7        29.92R
GRAND RAPIDS   CLOUDY    43  27  52 E6        29.94R
CRANE LAKE     CLOUDY    43  12  28 CALM      30.00F
ORR            CLOUDY    45  16  31 SE5       29.94S
COOK           CLOUDY    39  18  41 E3        29.97R
WALKER         CLOUDY    40  29  63 E8        29.90S
$$
MNZ012-019>021-037-251600-
   Northeast Minnesota

CITY           SKY/WX    TMP DP  RH WIND       PRES   REMARKS
DULUTH         CLOUDY    36  23  59 E15       29.96R
ELY            CLOUDY    39   9  28 E7        29.98R
HIBBING        CLOUDY    41  21  44 E9        29.95R
EVELETH        MOSUNNY   39  19  45 E6        29.97S
DULUTH HARBOR  PTSUNNY   37  32  81 NE24      30.00R
TWO HARBORS    CLOUDY    39  27  60 NE14      29.97R
SILVER BAY     CLOUDY    39  21  48 NE9       29.99R
GRAND MARAIS     N/A     37  22  54 E15G22    30.04S
G MARAIS ARPRT CLOUDY    36   1  23 NE10      30.00S
$$
MNZ029>031-032-039>041-046>048-054>057-064-251600-
   West Central Minnesota

CITY           SKY/WX    TMP DP  RH WIND       PRES   REMARKS
FERGUS FALLS   CLOUDY    45  34  65 SE12      29.87R
WHEATON        CLOUDY    39  37  93 E14       29.85R FOG
MORRIS         MOSUNNY   43  41  93 E14       29.83R FOG
ALEXANDRIA     CLOUDY    40  36  86 E13G21    29.86R
ELBOW LAKE     CLOUDY    42  38  86 E14       29.84S
WADENA         MOSUNNY   43  34  70 E14       29.86R
GLENWOOD       MOSUNNY   41  37  87 E12       29.85R
APPLETON       MOSUNNY   45  41  87 E14       29.82R
BENSON         CLOUDY    45  39  81 SE9       29.83R
ORTONVILLE     CLOUDY    43  39  87 E12       29.82R FOG
MADISON        CLOUDY    45  41  87 E12       29.81R
WILLMAR        FAIR      45  41  87 E16       29.84R
$$
MNZ033>034-036-042>043-049>051-058-059-251600-
   Central Minnesota

CITY           SKY/WX    TMP DP  RH WIND       PRES   REMARKS
ST CLOUD       CLOUDY    44  36  73 E8        29.87R
SAUK CENTRE    CLOUDY    41  37  84 E13       29.86R
PAYNESVILLE    CLOUDY    41  37  86 NE12G21   29.86R
AITKIN         PTSUNNY   43  32  65 E12       29.91R
PINE RIVER     PTSUNNY   43  34  70 E14       29.94R
BRAINERD       CLOUDY    42  32  67 E8        29.90R
STAPLES        PTSUNNY   45  34  65 E9        29.87S
LONG PRAIRIE   CLOUDY    41  34  75 E10G20    29.87R
LITTLE FALLS   MOSUNNY   45  34  65 E10G18    29.88R
LITCHFIELD     CLOUDY    45  39  81 E12G21    29.85R
BUFFALO        CLOUDY    45  37  73 NE12      29.87R
MAPLE LAKE     CLOUDY    46  39  78 E13       29.87R
$$
MNZ037-044-045-052-053-251600-
   East Central Minnesota

CITY           SKY/WX    TMP DP  RH WIND       PRES   REMARKS
PRINCETON      PTSUNNY   48  37  66 E12       29.88R
MORA           MOSUNNY   45  32  61 E8        29.91S
CAMBRIDGE      MOSUNNY   50  36  57 E10G16    29.87R
RUSH CITY      MOSUNNY   49  34  56 E9        29.90R
MOOSE LAKE     CLOUDY    37  30  75 CALM      29.92S
HINCKLEY       PTSUNNY   46  34  61 E9G17     29.91S
CLOQUET        CLOUDY    36  25  64 E13G18    29.96R
MCGREGOR       CLOUDY    41  32  70 E12G17    29.93R
$$
MNZ071>073-080-081-089-090-097-098-251600-
   Southwest Minnesota

CITY           SKY/WX    TMP DP  RH WIND       PRES   REMARKS
MONTEVIDEO     CLOUDY    45  43  93 SE16      29.83R
GRANITE FALLS  CLOUDY    46  38  75 E9        29.83R
CANBY          CLOUDY    45  40  85 E13G21    29.80S
MARSHALL       CLOUDY    45  36  70 E15       29.79R
REDWOOD FALLS  CLOUDY    45  37  73 E14G23    29.80S
OLIVIA         CLOUDY    43  36  75 E16G22    29.81R
PIPESTONE      CLOUDY    43  39  87 E13G21    29.74S
WORTHINGTON    CLOUDY    43  36  75 E15       29.75S
JACKSON        CLOUDY    45  36  70 E13       29.75S
TRACY          CLOUDY    47  39  75 E14G20    29.79R
SLAYTON        CLOUDY    44  39  85 E17       29.77S
$$
MNZ065>067-074>077-082>085-091>093-251600-
   South Central Minnesota

CITY           SKY/WX    TMP DP  RH WIND       PRES   REMARKS
MANKATO        CLOUDY    46  36  66 E14       29.81R
NEW ULM        PTSUNNY   45  37  76 E13       29.81R
ST JAMES       CLOUDY    46  37  71 NE16      29.80R
FAIRMONT       CLOUDY    45  16  31 E14       29.76S
GLENCOE        CLOUDY    45  40  81 E12       29.83S
FARIBAULT      CLOUDY    45  37  76 E10       29.82R
OWATONNA       PTSUNNY   46  39  76 E17       29.80S
ALBERT LEA     CLOUDY    46  39  76 E14G21    29.76R
$$
MNZ078>079-086>088-094>096-251600-
   Southeast Minnesota

CITY           SKY/WX    TMP DP  RH WIND       PRES   REMARKS
ROCHESTER      CLOUDY    44  38  79 E20       29.80R
RED WING       PTSUNNY   46  36  66 E14       29.84S
STANTON        PTSUNNY   48  40  75 E12       29.82S
DODGE CENTER   PTSUNNY   46  41  81 E16       29.79R
AUSTIN         CLOUDY    46  39  76 E18       29.77R
PRESTON        PTSUNNY   44  37  74 E14G20    29.80S
$$
ABBREVIATIONS USED IN REMARKS
   TC - TEMPERATURES IN CELSIUS
  WCI - WIND CHILL INDEX
   HX - HEAT INDEX
  VSB - VISIBILITY
$$



USA.gov is the U.S. government's official web portal to all federal, state and local government web resources and services.